Погода в Черкасском

Украина / Донецкая область     48°50′26″N   37°23′18″E
темп.,
°C
ветер,
м/с
пор.,
м/с
влажн.,
%
обл.,
%
осадки,
мм/ч
давл.,
гПа
погр.,
м
18 мая, ср
ср1800:00+9зюз3684100 0.2 1012118
03:00+9ю2489100 0.7 101077
06:00+10юз1294100 3.3 101082
09:00+12ссз2374100 4.6 1010413
12:00+12с3466100 1.1 10111096
15:00+12ссв3458100 1.2 10111246
18:00+13св2454100 0.0 10111055
21:00+9с356934 0.0 101273
19 мая, чт
чт1900:00+8с398396 0.1 1014270
03:00+8с3886100 0.2 1015227
06:00+7с389177 0.2 1016292
09:00+13ссв797196 0.3 10161054
12:00+15ссв795598 0.7 10161937
15:00+15с7105783 0.8 1016936
18:00+14ссз3765100 0.0 1017212
21:00+12сз3565100 0.0 1018102
20 мая, пт
пт2000:00+10сз377817 0.1 1019134
03:00+7зсз368595 0.1 101988
06:00+8зсз36855 0.0 1020165
09:00+15сз46615 0.0 1020794
12:00+18сз56485 0.1 10192020
15:00+17сз5654100 0.1 10181448
18:00+17зсз3657100 0.0 10181463
21:00+14ююз4764100 0.0 1016143
21 мая, сб
сб2100:00+12юз3794100 0.7 1014238
03:00+12ююз61590100 0.8 1011465
06:00+12юз81885100 0.0 1007549
09:00+15зюз91479100 0.1 1005935
12:00+18з9136995 0.8 10031549
15:00+16зсз101274100 2.2 10041099
18:00+9с81285100 0.3 1008757
21:00+7ссв6117799 0.3 1013907
22 мая, вс
вс2200:00+5ссз128996 0.0 101311
03:00+5ссз1185100 0.0 101410
06:00+6всв1282100 0.0 101376
09:00+10в2269100 0.0 1012556
12:00+11ююв2262100 0.2 10111070
15:00+11всв1261100 0.5 10101003
18:00+12всв245891 0.1 10091036
21:00+8св337790 0.1 101046